Regional Weather Roundup
Issued by NWS

Home | Current Version | Previous Version | Graphics & Text | Print | Product List | Glossary On
Versions: 1 2 3 4 5 6 7 8 9 10 11 12 13 14 15 16 17 18 19 20 21 22 23 24 25 26 27 28 29 30 31 32 33 34 35 36 37 38 39 40 41 42 43 44 45 46 47 48 49 50
000
ASUS43 KFSD 162002
RWRSD

WEATHER ROUNDUP FOR SOUTH DAKOTA
NATIONAL WEATHER SERVICE SIOUX FALLS SD
300 PM CDT MON OCT 16 2017

NOTE: "FAIR" INDICATES FEW OR NO CLOUDS BELOW 12,000 FEET WITH NO
SIGNIFICANT WEATHER AND/OR OBSTRUCTIONS TO VISIBILITY.


SDZ001>005-009-010-012>017-162100-
NORTHWEST AND NORTH CENTRAL SOUTH DAKOTA

CITY           SKY/WX    TMP DP  RH WIND       PRES   REMARKS
BUFFALO          N/A     70  28  21 W20       29.99F
FAITH            N/A     72  28  19 NW16      30.01F
MOBRIDGE       CLOUDY    74  35  24 NW14      29.94F
$$

SDZ012>016-024>037-041>051-057-063-072>074-162100-
SOUTHWEST AND SOUTH CENTRAL SOUTH DAKOTA

CITY           SKY/WX    TMP DP  RH WIND       PRES   REMARKS
RAPID CTY ARPT SUNNY     76  25  15 N13       30.06F
PIERRE         SUNNY     68  38  33 W7        30.00F
CUSTER         SUNNY     66  20  17 VRB3      30.16F
ELLSWORTH AFB  SUNNY     75  24  15 N16G22    30.05F
PHILIP         SUNNY     76  31  19 VRB3      30.02F
PINE RIDGE     SUNNY     74  22  14 W10G18    30.09F
SPEARFISH      FAIR      70  25  18 NW16G22   30.10F
WINNER         FAIR      74  40  29 NW8       30.03F
$$

SDZ004>011-016>023-039-040-162100-
NORTHEAST SOUTH DAKOTA

CITY           SKY/WX    TMP DP  RH WIND       PRES   REMARKS
ABERDEEN       SUNNY     69  39  33 SW12      29.97F
WATERTOWN      SUNNY     64  39  39 S16       29.98F
BROOKINGS      SUNNY     68  37  32 SW20G26   30.02F
SISSETON         N/A     70  36  28 SW21G26   29.94F
$$

SDZ017-020-022-023-036>040-048>070-162100-
SOUTHEAST SOUTH DAKOTA

CITY           SKY/WX    TMP DP  RH WIND       PRES   REMARKS
SIOUX FALLS    MOSUNNY   72  38  29 S16G22    30.04F
HURON          SUNNY     67  41  38 SW8       30.01F
CHAMBERLAIN    SUNNY     70  40  33 W9        30.02F
MITCHELL       CLOUDY    73  39  29 SW9       30.01F
YANKTON        SUNNY     75  36  24 SW17G24   30.03F
$$

ABBREVIATIONS USED IN REMARKS
   TC - TEMPERATURE IN CELSIUS
  WCI - WIND CHILL INDEX
   HX - HEAT INDEX
  VSB - VISIBILITY





USA.gov is the U.S. government's official web portal to all federal, state and local government web resources and services.